TimeEST,TemperatureF,Dew PointF,Humidity,Sea Level PressureIn,VisibilityMPH,Wind Direction,Wind SpeedMPH,Gust SpeedMPH,PrecipitationIn,Events,Conditions,WindDirDegrees,DateUTC
12:15 AM,33.8,28.4,81,30.28,10.0,ESE,3.5,-,N/A,,Overcast,120,2013-02-23 05:15:00
12:35 AM,33.8,28.4,81,30.28,10.0,ESE,3.5,-,N/A,,Overcast,110,2013-02-23 05:35:00
12:55 AM,33.8,28.4,81,30.28,10.0,SE,3.5,-,N/A,,Overcast,130,2013-02-23 05:55:00
1:15 AM,33.8,28.4,81,30.27,10.0,SE,4.6,-,N/A,,Overcast,130,2013-02-23 06:15:00
1:35 AM,33.8,28.4,81,30.27,10.0,Calm,Calm,-,N/A,,Overcast,0,2013-02-23 06:35:00
1:55 AM,33.8,28.4,81,30.26,10.0,Calm,Calm,-,N/A,,Overcast,0,2013-02-23 06:55:00
2:15 AM,33.8,28.4,81,30.26,10.0,Calm,Calm,-,N/A,,Overcast,0,2013-02-23 07:15:00
2:55 AM,33.8,28.4,81,30.24,10.0,East,3.5,-,N/A,,Overcast,100,2013-02-23 07:55:00
3:15 AM,33.8,28.4,81,30.23,10.0,SE,4.6,-,N/A,,Overcast,140,2013-02-23 08:15:00
3:35 AM,33.8,28.4,81,30.23,10.0,ESE,4.6,-,N/A,,Overcast,120,2013-02-23 08:35:00
3:55 AM,33.8,30.2,87,30.23,10.0,ESE,3.5,-,N/A,,Overcast,110,2013-02-23 08:55:00
4:15 AM,33.8,30.2,87,30.22,10.0,ESE,3.5,-,N/A,,Overcast,110,2013-02-23 09:15:00
4:35 AM,33.8,30.2,87,30.21,10.0,ESE,3.5,-,N/A,,Overcast,110,2013-02-23 09:35:00
4:55 AM,33.8,30.2,87,30.21,10.0,ESE,3.5,-,N/A,,Overcast,110,2013-02-23 09:55:00
5:15 AM,33.8,30.2,87,30.21,10.0,Calm,Calm,-,N/A,,Overcast,0,2013-02-23 10:15:00
5:35 AM,33.8,30.2,87,30.20,10.0,Calm,Calm,-,N/A,,Overcast,0,2013-02-23 10:35:00
5:55 AM,33.8,30.2,87,30.20,10.0,Calm,Calm,-,N/A,,Overcast,0,2013-02-23 10:55:00
6:15 AM,33.8,32.0,93,30.20,9.0,ESE,3.5,-,N/A,,Overcast,110,2013-02-23 11:15:00
6:35 AM,33.8,32.0,93,30.20,10.0,ESE,3.5,-,N/A,,Overcast,110,2013-02-23 11:35:00
6:55 AM,33.8,32.0,93,30.20,9.0,SE,4.6,-,N/A,,Overcast,130,2013-02-23 11:55:00
7:15 AM,33.8,32.0,93,30.20,1.5,SE,4.6,-,N/A,,Overcast,130,2013-02-23 12:15:00
7:35 AM,35.6,33.8,93,30.18,4.0,SE,3.5,-,N/A,,Overcast,130,2013-02-23 12:35:00
7:55 AM,35.6,33.8,93,30.18,3.0,ESE,5.8,-,N/A,,Overcast,120,2013-02-23 12:55:00
8:15 AM,35.6,33.8,93,30.17,9.0,ESE,5.8,-,N/A,,Overcast,110,2013-02-23 13:15:00
8:35 AM,35.6,33.8,93,30.17,10.0,ESE,5.8,-,N/A,,Overcast,110,2013-02-23 13:35:00
8:55 AM,37.4,33.8,87,30.17,7.0,ESE,6.9,-,N/A,,Overcast,120,2013-02-23 13:55:00
9:15 AM,37.4,33.8,87,30.16,10.0,ESE,9.2,-,N/A,,Overcast,110,2013-02-23 14:15:00
9:35 AM,37.4,33.8,87,30.15,9.0,SE,8.1,16.1,N/A,,Overcast,140,2013-02-23 14:35:00
9:55 AM,37.4,33.8,87,30.14,2.5,SE,8.1,-,N/A,,Overcast,130,2013-02-23 14:55:00
10:15 AM,37.4,35.6,93,30.12,1.5,ESE,9.2,16.1,N/A,,Overcast,120,2013-02-23 15:15:00
10:35 AM,37.4,35.6,93,30.12,2.0,ESE,6.9,-,N/A,,Overcast,120,2013-02-23 15:35:00
10:55 AM,37.4,35.6,93,30.12,5.0,SE,9.2,17.3,N/A,,Overcast,130,2013-02-23 15:55:00
11:15 AM,37.4,35.6,93,30.12,6.0,SE,6.9,18.4,N/A,,Overcast,130,2013-02-23 16:15:00
11:35 AM,37.4,35.6,93,30.11,3.0,SE,11.5,19.6,N/A,,Overcast,140,2013-02-23 16:35:00
11:55 AM,37.4,35.6,93,30.09,0.8,SE,11.5,17.3,N/A,Rain,Light Rain,130,2013-02-23 16:55:00
12:15 PM,37.4,35.6,93,30.08,1.2,ESE,6.9,-,N/A,Rain,Light Rain,120,2013-02-23 17:15:00
12:35 PM,37.4,35.6,93,30.08,1.5,SE,9.2,17.3,N/A,,Overcast,130,2013-02-23 17:35:00
12:55 PM,37.4,35.6,93,30.06,1.8,ESE,9.2,-,N/A,,Overcast,120,2013-02-23 17:55:00
1:15 PM,37.4,35.6,93,30.06,2.0,SE,9.2,18.4,N/A,,Overcast,130,2013-02-23 18:15:00
1:35 PM,37.4,35.6,93,30.06,4.0,SE,9.2,18.4,N/A,,Overcast,130,2013-02-23 18:35:00
1:55 PM,37.4,35.6,93,30.05,4.0,ESE,4.6,16.1,N/A,,Overcast,120,2013-02-23 18:55:00
2:15 PM,37.4,35.6,93,30.05,3.0,ESE,6.9,-,N/A,,Overcast,120,2013-02-23 19:15:00
2:35 PM,37.4,35.6,93,30.04,3.0,East,6.9,-,N/A,Rain,Light Rain,100,2013-02-23 19:35:00
2:55 PM,35.6,35.6,100,30.03,4.0,East,8.1,-,0.01,,Overcast,100,2013-02-23 19:55:00
3:15 PM,35.6,35.6,100,30.02,7.0,East,9.2,-,N/A,,Overcast,100,2013-02-23 20:15:00
3:35 PM,35.6,35.6,100,30.01,7.0,ESE,8.1,-,N/A,,Overcast,120,2013-02-23 20:35:00
3:55 PM,35.6,33.8,93,30.01,8.0,East,6.9,17.3,N/A,Rain,Light Rain,100,2013-02-23 20:55:00
4:15 PM,35.6,33.8,93,30.01,3.0,East,6.9,-,0.02,Rain,Light Rain,90,2013-02-23 21:15:00
4:35 PM,35.6,33.8,93,30.01,3.0,East,8.1,-,0.04,Rain,Light Rain,100,2013-02-23 21:35:00
4:55 PM,35.6,33.8,93,30.00,3.0,East,6.9,-,0.07,Rain,Light Rain,80,2013-02-23 21:55:00
5:15 PM,35.6,33.8,93,29.99,4.0,East,8.1,-,0.03,Rain,Light Rain,100,2013-02-23 22:15:00
5:35 PM,33.8,33.8,100,29.98,3.0,East,8.1,-,0.05,Rain,Rain,80,2013-02-23 22:35:00
5:55 PM,33.8,33.8,100,29.97,2.5,East,9.2,-,0.13,Rain,Light Rain,80,2013-02-23 22:55:00
6:15 PM,33.8,33.8,100,29.97,3.0,ENE,5.8,-,0.01,Rain,Rain,70,2013-02-23 23:15:00
6:35 PM,33.8,33.8,100,29.96,3.0,East,8.1,-,0.08,Rain,Rain,80,2013-02-23 23:35:00
6:55 PM,33.8,33.8,100,29.96,2.5,East,6.9,-,0.12,Rain,Light Rain,100,2013-02-23 23:55:00
7:15 PM,33.8,33.8,100,29.95,1.8,East,8.1,-,0.01,Rain,Light Rain,80,2013-02-24 00:15:00
7:35 PM,33.8,33.8,100,29.95,2.0,ENE,6.9,-,0.04,Rain,Light Rain,70,2013-02-24 00:35:00
7:55 PM,33.8,33.8,100,29.94,2.0,ENE,8.1,-,0.06,Rain,Rain,70,2013-02-24 00:55:00
8:15 PM,35.6,35.6,100,29.92,2.5,ENE,8.1,-,N/A,Rain,Light Rain,70,2013-02-24 01:15:00
8:35 PM,33.8,33.8,100,29.91,2.5,East,9.2,16.1,0.01,,Overcast,80,2013-02-24 01:35:00
8:55 PM,33.8,33.8,100,29.88,2.5,East,11.5,16.1,0.01,,Overcast,80,2013-02-24 01:55:00
9:15 PM,35.6,35.6,100,29.87,3.0,ENE,9.2,-,N/A,,Overcast,70,2013-02-24 02:15:00
9:35 PM,35.6,35.6,100,29.86,5.0,ENE,11.5,16.1,N/A,,Overcast,60,2013-02-24 02:35:00
9:55 PM,35.6,35.6,100,29.85,7.0,NE,8.1,-,N/A,,Overcast,50,2013-02-24 02:55:00
10:15 PM,35.6,35.6,100,29.84,5.0,NE,8.1,-,N/A,,Overcast,40,2013-02-24 03:15:00
10:35 PM,35.6,35.6,100,29.84,1.5,NE,5.8,-,N/A,Rain,Light Rain,40,2013-02-24 03:35:00
10:55 PM,35.6,35.6,100,29.82,1.0,NNE,8.1,-,0.03,Rain,Light Rain,30,2013-02-24 03:55:00
11:15 PM,35.6,35.6,100,29.82,2.0,NE,8.1,-,0.01,Rain,Light Rain,40,2013-02-24 04:15:00
11:35 PM,35.6,35.6,100,29.81,1.8,NNE,6.9,-,0.02,,Light Drizzle,30,2013-02-24 04:35:00
11:55 PM,35.6,35.6,100,29.81,1.5,NNE,9.2,-,0.03,Rain,Light Rain,20,2013-02-24 04:55:00